Location: Unspecified
(0.0000°N, 0.0000°E)
Time: 18:04:15
(UTC+00:00)

Vanguard 1 Rocket - Pass Details

Date: 17 April 2026
Orbit: 655 x 4212 km, 34.3° (Epoch: 17 May)

Event Time Altitude Azimuth Distance (km) Brightness Sun altitude
Rises 22:12:51 0° 278° (W) 7,870 12.6 -61.4°
Reaches altitude 10° 22:19:57 10° 290° (WNW) 7,184 12.2 -63.0°
Maximum altitude 22:39:16 26° 339° (NNW) 6,048 11.5 -67.4°
Drops below altitude 10° 22:56:45 10° 29° (NNE) 6,417 11.6 -71.1°
Sets 23:02:43 0° 43° (NE) 6,919 11.9 -72.3°
